TimeCDT,TemperatureF,Dew PointF,Humidity,Sea Level PressureIn,VisibilityMPH,Wind Direction,Wind SpeedMPH,Gust SpeedMPH,PrecipitationIn,Events,Conditions,WindDirDegrees,DateUTC
12:10 AM,32.0,28.4,87,30.01,10.0,West,8.1,-,N/A,,Clear,280,2014-05-04 05:10:00
12:21 AM,32.0,28.4,87,30.01,10.0,West,6.9,-,N/A,,Clear,280,2014-05-04 05:21:00
12:41 AM,32.0,28.4,87,30.01,10.0,West,8.1,-,N/A,,Clear,280,2014-05-04 05:41:00
1:01 AM,30.2,26.6,86,30.02,10.0,West,8.1,-,N/A,,Clear,280,2014-05-04 06:01:00
1:21 AM,30.2,28.4,93,30.03,10.0,West,6.9,-,N/A,,Clear,270,2014-05-04 06:21:00
1:41 AM,30.2,26.6,86,30.04,10.0,West,6.9,-,N/A,,Clear,270,2014-05-04 06:41:00
2:01 AM,30.2,26.6,86,30.05,10.0,West,6.9,-,N/A,,Clear,270,2014-05-04 07:01:00
2:21 AM,30.2,26.6,86,30.05,10.0,West,8.1,-,N/A,,Clear,280,2014-05-04 07:21:00
2:41 AM,30.2,26.6,86,30.06,10.0,WNW,6.9,-,N/A,,Clear,290,2014-05-04 07:41:00
3:01 AM,30.2,26.6,86,30.06,10.0,WNW,5.8,-,N/A,,Clear,290,2014-05-04 08:01:00
3:21 AM,30.2,26.6,86,30.06,10.0,WNW,6.9,-,N/A,,Clear,290,2014-05-04 08:21:00
3:41 AM,30.2,26.6,86,30.07,10.0,WNW,5.8,-,N/A,,Clear,290,2014-05-04 08:41:00
4:01 AM,28.4,26.6,93,30.07,10.0,WNW,5.8,-,N/A,,Clear,300,2014-05-04 09:01:00
4:21 AM,28.4,24.8,86,30.08,10.0,WNW,5.8,-,N/A,,Clear,290,2014-05-04 09:21:00
4:41 AM,28.4,24.8,86,30.08,10.0,WNW,6.9,-,N/A,,Clear,300,2014-05-04 09:41:00
5:01 AM,28.4,24.8,86,30.07,10.0,WNW,5.8,-,N/A,,Clear,300,2014-05-04 10:01:00
5:21 AM,28.4,24.8,86,30.08,10.0,WNW,5.8,-,N/A,,Clear,300,2014-05-04 10:21:00
5:41 AM,28.4,24.8,86,30.08,10.0,WNW,5.8,-,N/A,,Clear,300,2014-05-04 10:41:00
6:01 AM,28.4,24.8,86,30.08,10.0,WNW,6.9,-,N/A,,Clear,290,2014-05-04 11:01:00
6:21 AM,28.4,24.8,86,30.09,10.0,WNW,6.9,-,N/A,,Clear,300,2014-05-04 11:21:00
6:41 AM,28.4,24.8,86,30.09,10.0,NW,4.6,-,N/A,,Clear,310,2014-05-04 11:41:00
7:01 AM,28.4,24.8,86,30.10,10.0,NW,5.8,-,N/A,,Clear,320,2014-05-04 12:01:00
7:21 AM,30.2,26.6,86,30.11,10.0,NW,6.9,-,N/A,,Clear,310,2014-05-04 12:21:00
7:47 AM,30.2,26.6,86,30.11,10.0,NW,6.9,-,N/A,,Clear,320,2014-05-04 12:47:00
8:01 AM,30.2,28.4,93,30.12,10.0,NW,5.8,-,N/A,,Clear,320,2014-05-04 13:01:00
8:21 AM,33.8,28.4,81,30.13,10.0,NNW,6.9,-,N/A,,Clear,340,2014-05-04 13:21:00
9:01 AM,35.6,28.4,75,30.13,10.0,North,4.6,-,N/A,,Clear,0,2014-05-04 14:01:00
9:21 AM,35.6,30.2,81,30.13,10.0,NNE,5.8,-,N/A,,Clear,30,2014-05-04 14:21:00
9:41 AM,37.4,28.4,70,30.13,10.0,NNE,6.9,-,N/A,,Scattered Clouds,20,2014-05-04 14:41:00
10:01 AM,39.2,30.2,70,30.13,10.0,East,9.2,-,N/A,,Mostly Cloudy,80,2014-05-04 15:01:00
10:21 AM,37.4,26.6,65,30.13,10.0,ENE,6.9,-,N/A,,Overcast,70,2014-05-04 15:21:00
10:41 AM,37.4,28.4,70,30.13,10.0,East,9.2,-,N/A,,Overcast,80,2014-05-04 15:41:00
11:01 AM,37.4,28.4,70,30.14,10.0,East,8.1,-,N/A,,Overcast,80,2014-05-04 16:01:00
11:21 AM,37.4,28.4,70,30.13,10.0,East,9.2,-,N/A,,Overcast,80,2014-05-04 16:21:00
12:01 PM,39.2,26.6,61,30.13,10.0,NNE,5.8,-,N/A,,Overcast,20,2014-05-04 17:01:00
12:21 PM,39.2,28.4,65,30.13,10.0,NE,10.4,-,N/A,,Overcast,50,2014-05-04 17:21:00
12:41 PM,37.4,26.6,65,30.13,10.0,ENE,10.4,-,N/A,,Overcast,70,2014-05-04 17:41:00
1:01 PM,39.2,26.6,61,30.13,10.0,East,10.4,-,N/A,,Overcast,80,2014-05-04 18:01:00
1:21 PM,37.4,26.6,65,30.13,10.0,ESE,10.4,-,N/A,,Overcast,110,2014-05-04 18:21:00
1:41 PM,39.2,26.6,61,30.12,10.0,East,10.4,-,N/A,,Overcast,90,2014-05-04 18:41:00
2:21 PM,39.2,28.4,65,30.12,10.0,East,10.4,-,N/A,,Clear,90,2014-05-04 19:21:00
2:41 PM,39.2,28.4,65,30.12,10.0,ESE,10.4,-,N/A,,Mostly Cloudy,110,2014-05-04 19:41:00
3:21 PM,39.2,28.4,65,30.12,10.0,East,10.4,-,N/A,,Scattered Clouds,90,2014-05-04 20:21:00
3:41 PM,39.2,28.4,65,30.11,10.0,East,9.2,-,N/A,,Clear,90,2014-05-04 20:41:00
4:01 PM,39.2,28.4,65,30.10,10.0,East,9.2,-,N/A,,Clear,90,2014-05-04 21:01:00
4:21 PM,39.2,28.4,65,30.10,10.0,East,8.1,-,N/A,,Clear,80,2014-05-04 21:21:00
4:41 PM,39.2,28.4,65,30.10,10.0,ENE,10.4,-,N/A,,Clear,70,2014-05-04 21:41:00
5:01 PM,39.2,28.4,65,30.09,10.0,ENE,10.4,-,N/A,,Clear,70,2014-05-04 22:01:00
5:41 PM,41.0,28.4,61,30.08,10.0,East,10.4,-,N/A,,Clear,80,2014-05-04 22:41:00
6:01 PM,41.0,28.4,61,30.08,10.0,ENE,9.2,-,N/A,,Clear,70,2014-05-04 23:01:00
6:21 PM,39.2,26.6,61,30.08,10.0,ENE,9.2,-,N/A,,Clear,70,2014-05-04 23:21:00
6:41 PM,39.2,28.4,65,30.07,10.0,ENE,6.9,-,N/A,,Clear,70,2014-05-04 23:41:00
7:01 PM,37.4,26.6,65,30.07,10.0,ENE,8.1,-,N/A,,Clear,60,2014-05-05 00:01:00
7:21 PM,37.4,26.6,65,30.07,10.0,ENE,8.1,-,N/A,,Clear,60,2014-05-05 00:21:00
7:41 PM,37.4,26.6,65,30.07,10.0,ENE,8.1,-,N/A,,Clear,60,2014-05-05 00:41:00
8:01 PM,37.4,26.6,65,30.07,10.0,ENE,5.8,-,N/A,,Clear,60,2014-05-05 01:01:00
8:21 PM,37.4,28.4,70,30.08,10.0,NE,5.8,-,N/A,,Clear,50,2014-05-05 01:21:00
8:41 PM,37.4,26.6,65,30.08,10.0,NE,4.6,-,N/A,,Clear,50,2014-05-05 01:41:00
9:01 PM,37.4,28.4,70,30.09,10.0,NE,3.5,-,N/A,,Clear,40,2014-05-05 02:01:00
9:21 PM,37.4,28.4,70,30.10,10.0,NE,3.5,-,N/A,,Clear,50,2014-05-05 02:21:00
10:01 PM,37.4,26.6,65,30.11,10.0,NE,3.5,-,N/A,,Clear,40,2014-05-05 03:01:00
10:21 PM,37.4,26.6,65,30.10,10.0,NE,2.3,-,N/A,,Clear,40,2014-05-05 03:21:00
10:41 PM,37.4,28.4,70,30.10,10.0,NE,1.2,-,N/A,,Clear,40,2014-05-05 03:41:00
11:01 PM,37.4,30.2,75,30.10,10.0,SSE,1.2,-,N/A,,Clear,150,2014-05-05 04:01:00
11:21 PM,37.4,28.4,70,30.10,10.0,Calm,Calm,-,N/A,,Clear,310,2014-05-05 04:21:00